contact:dominique.lefevre@mio.osupytheas.fr, maurice.libes@osupytheas.fr, didier.mallarino@osupytheas.fr
Project:EMSO http://www.emso-fr.org/EMSO-France
Depth: 2436.0 m
Title:EMSO Ligure Ouest : Data MII capteur AQUADOPP
Date,Latitude,Longitude,X_East,Y_North,Z_Up,Amplitude_X,Amplitude_Y,Amplitude_Z,Batterie,SoundSpeed,Heading,Pitch,Roll,Pressure,TIS,Speed,Direction
, degrees North, degrees East, m.s-1, m.s-1,m.s-1, 1, 1, 1, Volt, m.s-1, degree, degree, degree, dbar, degree_C, m.s-1, degree
2020-02-12T00:04:03,42.805,6.029,-0.001,-0.002,-0.004,108.0,110.0,105.0,13.4,1505.3,325.5,-0.7,1.8,2470.253,13.31,0.002,206.6
2020-02-12T00:07:03,42.805,6.029,0.005,-0.023,-0.019,109.0,109.0,105.0,13.4,1505.3,327.4,-0.7,1.9,2470.2,13.32,0.023,167.7
2020-02-12T00:10:03,42.805,6.029,0.007,-0.011,0.022,108.0,110.0,106.0,13.3,1505.3,324.5,-0.7,1.8,2470.207,13.32,0.013,147.5
2020-02-12T00:13:03,42.805,6.029,-0.018,0.0,0.001,107.0,109.0,103.0,13.4,1505.3,323.4,-0.7,1.8,2470.175,13.32,0.018,270.0
2020-02-12T00:16:03,42.805,6.029,-0.006,-0.032,-0.016,109.0,108.0,104.0,13.4,1505.3,322.7,-0.7,1.8,2470.212,13.33,0.032,190.6
2020-02-12T00:19:03,42.805,6.029,-0.002,-0.009,-0.034,109.0,107.0,103.0,13.3,1505.3,326.1,-0.7,1.8,2470.209,13.33,0.009,192.5
2020-02-12T00:22:03,42.805,6.029,-0.007,0.004,-0.025,108.0,111.0,103.0,13.4,1505.3,328.3,-0.7,1.8,2470.179,13.33,0.008,299.7
2020-02-12T00:25:03,42.805,6.029,-0.035,0.008,-0.037,108.0,109.0,104.0,13.4,1505.3,325.4,-0.7,1.8,2470.163,13.33,0.035,282.9
2020-02-12T00:28:03,42.805,6.029,-0.003,-0.021,-0.023,108.0,108.0,105.0,13.3,1505.3,328.6,-0.7,1.8,2470.169,13.33,0.021,188.1
2020-02-12T00:31:03,42.805,6.029,0.004,0.0,-0.02,108.0,109.0,105.0,13.4,1505.3,323.8,-0.7,1.8,2470.191,13.33,0.004,90.0
2020-02-12T00:34:03,42.805,6.029,-0.013,-0.003,-0.022,107.0,111.0,104.0,13.4,1505.3,326.3,-0.7,1.8,2470.15,13.33,0.013,257.0
2020-02-12T00:37:03,42.805,6.029,-0.006,-0.016,-0.046,108.0,109.0,105.0,13.4,1505.3,327.7,-0.7,1.8,2470.216,13.33,0.017,200.6
2020-02-12T00:40:03,42.805,6.029,0.007,-0.009,-0.054,108.0,107.0,104.0,13.3,1505.3,323.3,-0.7,1.8,2470.135,13.33,0.011,142.1
2020-02-12T00:43:03,42.805,6.029,-0.006,-0.009,-0.001,107.0,109.0,105.0,13.4,1505.3,326.0,-0.7,1.8,2470.179,13.33,0.01,213.7
2020-02-12T00:46:03,42.805,6.029,0.008,-0.013,-0.006,107.0,109.0,102.0,13.4,1505.3,326.1,-0.7,1.8,2470.169,13.33,0.015,148.4
2020-02-12T00:49:03,42.805,6.029,0.006,0.004,-0.031,106.0,107.0,103.0,13.4,1505.3,326.5,-0.7,1.9,2470.135,13.33,0.007,56.3
2020-02-12T00:52:03,42.805,6.029,0.0,-0.017,-0.008,107.0,108.0,103.0,13.4,1505.3,326.3,-0.7,1.8,2470.152,13.33,0.017,180.0
2020-02-12T00:55:03,42.805,6.029,-0.009,-0.008,-0.033,107.0,108.0,104.0,13.4,1505.3,323.9,-0.7,1.8,2470.153,13.33,0.012,228.4
2020-02-12T00:58:03,42.805,6.029,-0.009,-0.012,-0.04,109.0,108.0,103.0,13.4,1505.3,327.2,-0.7,1.8,2470.144,13.33,0.015,216.9
2020-02-12T01:04:03,42.805,6.029,0.0,-0.012,-0.012,108.0,110.0,106.0,13.3,1505.3,324.0,-0.7,1.8,2470.149,13.31,0.012,180.0
2020-02-12T01:07:03,42.805,6.029,-0.022,-0.006,-0.03,108.0,110.0,104.0,13.4,1505.3,325.3,-0.7,1.8,2470.165,13.32,0.022,254.7
2020-02-12T01:10:03,42.805,6.029,0.008,-0.037,-0.021,107.0,108.0,104.0,13.4,1505.3,328.2,-0.7,1.8,2470.123,13.32,0.037,167.8
2020-02-12T01:13:03,42.805,6.029,0.021,-0.009,-0.002,108.0,109.0,104.0,13.3,1505.3,322.9,-0.7,1.8,2470.118,13.32,0.022,113.2
2020-02-12T01:16:03,42.805,6.029,0.016,-0.019,-0.033,108.0,110.0,104.0,13.4,1505.3,325.1,-0.7,1.8,2470.215,13.33,0.024,139.9
2020-02-12T01:19:03,42.805,6.029,0.015,-0.024,-0.037,109.0,109.0,103.0,13.4,1505.3,324.3,-0.7,1.8,2470.154,13.33,0.028,148.0
2020-02-12T01:22:03,42.805,6.029,0.008,-0.006,-0.027,108.0,109.0,105.0,13.4,1505.3,327.1,-0.7,1.8,2470.143,13.33,0.01,126.9
2020-02-12T01:25:03,42.805,6.029,0.01,-0.004,-0.018,109.0,109.0,104.0,13.3,1505.3,326.3,-0.7,1.9,2470.124,13.33,0.01,111.8
2020-02-12T01:28:03,42.805,6.029,0.021,0.001,-0.03,107.0,112.0,104.0,13.4,1505.3,325.4,-0.7,1.9,2470.079,13.33,0.021,87.3
2020-02-12T01:31:03,42.805,6.029,0.012,-0.006,0.008,109.0,108.0,104.0,13.4,1505.3,328.2,-0.7,1.8,2470.092,13.33,0.013,116.6
2020-02-12T01:34:03,42.805,6.029,0.0,-0.012,0.0,108.0,109.0,106.0,13.3,1505.3,326.5,-0.7,1.8,2470.087,13.33,0.012,180.0
2020-02-12T01:37:03,42.805,6.029,0.024,-0.004,-0.006,111.0,108.0,105.0,13.4,1505.3,327.2,-0.7,1.8,2470.153,13.33,0.024,99.5
2020-02-12T01:40:03,42.805,6.029,-0.012,0.006,-0.024,110.0,110.0,105.0,13.4,1505.3,323.3,-0.7,1.8,2470.142,13.33,0.013,296.6
2020-02-12T01:43:03,42.805,6.029,-0.019,-0.007,-0.023,108.0,109.0,105.0,13.4,1505.3,325.9,-0.7,1.8,2470.13,13.33,0.02,249.8
2020-02-12T01:46:03,42.805,6.029,-0.01,-0.012,-0.001,108.0,108.0,105.0,13.4,1505.3,326.5,-0.7,1.9,2470.074,13.33,0.015,219.8
2020-02-12T01:49:03,42.805,6.029,0.023,-0.004,-0.038,108.0,108.0,104.0,13.3,1505.3,323.2,-0.7,1.8,2470.073,13.33,0.023,99.9
2020-02-12T01:52:03,42.805,6.029,0.007,0.003,-0.009,108.0,108.0,104.0,13.4,1505.3,326.0,-0.7,1.8,2470.092,13.33,0.007,66.8
2020-02-12T01:55:03,42.805,6.029,-0.014,-0.012,-0.037,105.0,108.0,104.0,13.4,1505.3,325.3,-0.7,1.8,2470.119,13.33,0.018,229.4
2020-02-12T01:58:03,42.805,6.029,0.011,-0.006,-0.013,107.0,108.0,104.0,13.4,1505.3,326.2,-0.7,1.8,2470.111,13.33,0.012,118.6
2020-02-12T02:04:03,42.805,6.029,0.001,0.0,-0.007,106.0,108.0,102.0,13.3,1505.3,326.5,-0.8,1.9,2470.143,13.31,0.001,90.0
2020-02-12T02:07:03,42.805,6.029,0.002,0.012,0.011,106.0,107.0,103.0,13.4,1505.3,325.1,-0.7,1.8,2470.122,13.32,0.012,9.5
2020-02-12T02:10:03,42.805,6.029,0.001,-0.006,-0.005,107.0,109.0,103.0,13.3,1505.3,324.4,-0.7,1.8,2470.104,13.33,0.006,170.5
2020-02-12T02:13:03,42.805,6.029,-0.004,-0.003,0.001,106.0,107.0,103.0,13.3,1505.3,323.5,-0.7,1.9,2470.126,13.33,0.005,233.1
2020-02-12T02:16:03,42.805,6.029,0.01,-0.007,-0.018,105.0,107.0,103.0,13.4,1505.3,327.6,-0.7,1.8,2470.095,13.33,0.012,125.0
2020-02-12T02:19:03,42.805,6.029,0.011,-0.012,-0.001,105.0,108.0,101.0,13.4,1505.3,325.4,-0.7,1.8,2470.116,13.33,0.016,137.5
2020-02-12T02:22:03,42.805,6.029,0.018,0.001,0.013,105.0,110.0,103.0,13.4,1505.3,326.0,-0.7,1.8,2470.133,13.33,0.018,86.8
2020-02-12T02:25:03,42.805,6.029,0.005,0.008,-0.023,105.0,108.0,102.0,13.4,1505.3,324.4,-0.7,1.8,2470.129,13.33,0.009,32.0
2020-02-12T02:28:03,42.805,6.029,0.008,0.017,-0.033,108.0,107.0,103.0,13.3,1505.3,324.2,-0.7,1.8,2470.093,13.33,0.018,25.2
2020-02-12T02:31:03,42.805,6.029,0.0,0.001,-0.005,107.0,106.0,102.0,13.4,1505.4,324.4,-0.7,1.8,2470.099,13.34,0.001,0.0
2020-02-12T02:34:03,42.805,6.029,-0.016,-0.008,-0.017,105.0,108.0,103.0,13.4,1505.4,327.2,-0.7,1.8,2470.081,13.34,0.017,243.4
2020-02-12T02:37:03,42.805,6.029,-0.004,-0.015,-0.029,107.0,109.0,101.0,13.4,1505.3,323.8,-0.7,1.8,2470.104,13.33,0.015,194.9
2020-02-12T02:40:03,42.805,6.029,0.03,0.008,-0.024,105.0,108.0,102.0,13.4,1505.3,327.1,-0.7,1.8,2470.113,13.33,0.031,75.1
2020-02-12T02:43:03,42.805,6.029,-0.004,0.004,-0.01,106.0,109.0,104.0,13.4,1505.3,327.1,-0.7,1.8,2470.095,13.33,0.005,315.0
2020-02-12T02:46:03,42.805,6.029,-0.01,0.003,-0.045,106.0,106.0,102.0,13.4,1505.3,327.8,-0.7,1.9,2470.102,13.33,0.01,286.7
2020-02-12T02:49:03,42.805,6.029,0.011,-0.002,-0.012,105.0,107.0,103.0,13.4,1505.3,324.1,-0.7,1.8,2470.091,13.33,0.011,100.3
2020-02-12T02:52:03,42.805,6.029,0.03,-0.025,-0.033,106.0,107.0,102.0,13.4,1505.3,325.4,-0.7,1.8,2470.06,13.33,0.039,129.8
2020-02-12T02:55:03,42.805,6.029,0.013,0.007,-0.013,107.0,106.0,102.0,13.4,1505.3,327.5,-0.7,1.9,2470.087,13.33,0.014,61.7
2020-02-12T02:58:03,42.805,6.029,0.027,-0.004,-0.026,108.0,107.0,103.0,13.4,1505.3,326.9,-0.7,1.8,2470.079,13.33,0.027,98.4
2020-02-12T03:04:03,42.805,6.029,0.013,-0.001,-0.007,107.0,107.0,103.0,13.3,1505.3,324.4,-0.8,1.8,2470.122,13.31,0.013,94.4
2020-02-12T03:07:03,42.805,6.029,0.009,-0.002,-0.013,106.0,107.0,102.0,13.3,1505.3,323.8,-0.8,1.8,2470.087,13.32,0.009,102.5
2020-02-12T03:10:03,42.805,6.029,0.006,-0.006,-0.034,105.0,107.0,103.0,13.4,1505.3,326.4,-0.7,1.9,2470.085,13.32,0.008,135.0
2020-02-12T03:13:03,42.805,6.029,0.027,0.019,0.007,106.0,106.0,104.0,13.4,1505.3,326.8,-0.7,1.9,2470.116,13.33,0.033,54.9
2020-02-12T03:16:03,42.805,6.029,0.012,0.012,0.01,105.0,107.0,103.0,13.4,1505.3,324.3,-0.7,1.8,2470.111,13.33,0.016,45.0
2020-02-12T03:19:03,42.805,6.029,0.033,0.0,0.0,106.0,106.0,105.0,13.4,1505.3,328.5,-0.7,1.8,2470.094,13.33,0.033,90.0
2020-02-12T03:22:03,42.805,6.029,0.007,-0.014,-0.02,105.0,107.0,101.0,13.4,1505.3,326.2,-0.7,1.8,2470.07,13.33,0.015,153.4
2020-02-12T03:25:03,42.805,6.029,0.031,-0.001,-0.005,108.0,109.0,104.0,13.4,1505.3,327.3,-0.7,1.8,2470.098,13.33,0.031,91.8
2020-02-12T03:28:03,42.805,6.029,0.032,-0.005,0.011,106.0,108.0,103.0,13.4,1505.3,323.3,-0.7,1.8,2470.094,13.33,0.032,98.9
2020-02-12T03:31:03,42.805,6.029,-0.007,-0.017,-0.014,107.0,107.0,104.0,13.3,1505.3,324.0,-0.7,1.8,2470.105,13.33,0.018,202.4
2020-02-12T03:34:03,42.805,6.029,0.002,-0.007,-0.016,108.0,109.0,105.0,13.4,1505.3,325.0,-0.7,1.8,2470.101,13.33,0.007,164.1
2020-02-12T03:37:03,42.805,6.029,-0.001,-0.014,-0.026,108.0,109.0,105.0,13.4,1505.3,327.3,-0.7,1.8,2470.085,13.33,0.014,184.1
2020-02-12T03:40:03,42.805,6.029,0.005,-0.017,-0.03,107.0,109.0,102.0,13.4,1505.3,324.6,-0.7,1.8,2470.076,13.33,0.017,163.6
2020-02-12T03:43:03,42.805,6.029,-0.017,-0.013,-0.012,108.0,108.0,102.0,13.4,1505.3,323.6,-0.7,1.8,2470.093,13.33,0.021,232.6
2020-02-12T03:46:03,42.805,6.029,0.01,-0.022,-0.023,107.0,109.0,104.0,13.3,1505.3,324.8,-0.8,1.8,2470.146,13.33,0.024,155.6
2020-02-12T03:49:03,42.805,6.029,0.009,-0.011,0.011,109.0,109.0,105.0,13.4,1505.3,324.5,-0.7,1.8,2470.09,13.33,0.014,140.7
2020-02-12T03:52:03,42.805,6.029,0.008,-0.015,0.032,108.0,110.0,104.0,13.4,1505.3,326.6,-0.7,1.8,2470.122,13.33,0.017,151.9
2020-02-12T03:55:03,42.805,6.029,0.008,-0.02,-0.022,109.0,109.0,103.0,13.4,1505.3,325.4,-0.7,1.8,2470.109,13.33,0.021,158.2
2020-02-12T03:58:03,42.805,6.029,0.004,-0.016,-0.014,107.0,108.0,103.0,13.4,1505.3,327.0,-0.7,1.8,2470.07,13.33,0.016,166.0
2020-02-12T04:04:03,42.805,6.029,0.025,-0.01,0.009,108.0,109.0,105.0,13.4,1505.3,328.4,-0.7,1.8,2470.139,13.31,0.026,111.8
2020-02-12T04:07:03,42.805,6.029,0.022,-0.003,0.026,107.0,109.0,103.0,13.3,1505.3,327.9,-0.7,1.8,2470.101,13.32,0.022,97.8
2020-02-12T04:10:03,42.805,6.029,0.025,-0.023,-0.02,109.0,110.0,105.0,13.4,1505.3,325.1,-0.7,1.9,2470.116,13.32,0.033,132.6
2020-02-12T04:13:03,42.805,6.029,0.018,-0.012,-0.014,109.0,109.0,105.0,13.4,1505.3,323.6,-0.7,1.9,2470.116,13.33,0.021,123.7
2020-02-12T04:16:03,42.805,6.029,0.001,0.008,-0.021,109.0,110.0,104.0,13.3,1505.3,325.4,-0.7,1.8,2470.069,13.33,0.008,7.1
2020-02-12T04:19:03,42.805,6.029,-0.005,-0.02,-0.013,108.0,109.0,104.0,13.4,1505.3,326.1,-0.7,1.8,2470.108,13.33,0.02,194.0
2020-02-12T04:22:03,42.805,6.029,0.013,-0.009,-0.037,109.0,108.0,104.0,13.4,1505.3,326.5,-0.7,1.8,2470.096,13.33,0.015,124.7
2020-02-12T04:25:03,42.805,6.029,-0.003,0.007,-0.024,109.0,109.0,104.0,13.3,1505.3,325.3,-0.7,1.8,2470.096,13.33,0.007,336.8
2020-02-12T04:28:03,42.805,6.029,-0.013,-0.007,-0.008,108.0,109.0,104.0,13.4,1505.3,324.0,-0.7,1.8,2470.122,13.33,0.014,241.7
2020-02-12T04:31:03,42.805,6.029,0.016,-0.018,-0.029,109.0,109.0,104.0,13.3,1505.3,327.9,-0.7,1.8,2470.095,13.33,0.024,138.4
2020-02-12T04:34:03,42.805,6.029,0.016,-0.002,0.003,108.0,108.0,104.0,13.3,1505.3,327.2,-0.7,1.8,2470.087,13.33,0.016,97.1
2020-02-12T04:37:03,42.805,6.029,0.009,0.006,-0.012,109.0,108.0,105.0,13.3,1505.3,328.1,-0.7,1.8,2470.081,13.33,0.01,56.3
2020-02-12T04:40:03,42.805,6.029,0.002,-0.025,-0.023,110.0,108.0,104.0,13.4,1505.3,324.9,-0.7,1.8,2470.134,13.33,0.025,175.4
2020-02-12T04:43:03,42.805,6.029,0.011,-0.001,0.013,109.0,110.0,105.0,13.3,1505.3,326.5,-0.7,1.8,2470.075,13.33,0.011,95.2
2020-02-12T04:46:03,42.805,6.029,0.028,-0.005,-0.041,110.0,108.0,105.0,13.3,1505.3,326.3,-0.7,1.8,2470.118,13.33,0.028,100.1
2020-02-12T04:49:03,42.805,6.029,0.01,-0.013,-0.025,108.0,109.0,104.0,13.3,1505.3,325.6,-0.7,1.9,2470.091,13.33,0.016,142.4
2020-02-12T04:52:03,42.805,6.029,0.007,0.025,0.0,108.0,109.0,104.0,13.4,1505.3,327.0,-0.7,1.9,2470.087,13.33,0.025,15.6
2020-02-12T04:55:03,42.805,6.029,-0.003,-0.013,-0.014,108.0,110.0,105.0,13.3,1505.3,324.5,-0.7,1.9,2470.12,13.33,0.013,193.0
2020-02-12T04:58:03,42.805,6.029,0.007,-0.018,-0.01,107.0,108.0,104.0,13.4,1505.3,327.7,-0.7,1.8,2470.083,13.33,0.019,158.8
2020-02-12T05:04:03,42.805,6.029,0.016,-0.019,-0.024,111.0,108.0,103.0,13.4,1505.3,325.0,-0.7,1.8,2470.138,13.31,0.024,139.9
2020-02-12T05:07:03,42.805,6.029,-0.003,-0.024,-0.008,108.0,111.0,104.0,13.3,1505.3,327.2,-0.7,1.8,2470.127,13.32,0.024,187.1
2020-02-12T05:10:03,42.805,6.029,0.007,-0.034,-0.005,109.0,109.0,106.0,13.4,1505.3,324.4,-0.7,1.8,2470.16,13.32,0.034,168.4
2020-02-12T05:13:03,42.805,6.029,0.028,-0.016,0.005,108.0,110.0,104.0,13.4,1505.3,324.7,-0.7,1.8,2470.11,13.32,0.032,119.7
2020-02-12T05:16:03,42.805,6.029,0.018,-0.004,0.013,107.0,109.0,105.0,13.4,1505.3,328.1,-0.7,1.8,2470.143,13.33,0.018,102.5
2020-02-12T05:19:03,42.805,6.029,0.0,-0.019,-0.021,107.0,108.0,104.0,13.4,1505.3,326.0,-0.7,1.8,2470.139,13.33,0.019,180.0
2020-02-12T05:22:03,42.805,6.029,0.009,-0.016,-0.028,108.0,108.0,104.0,13.3,1505.3,323.7,-0.7,1.9,2470.123,13.33,0.018,150.6
2020-02-12T05:25:03,42.805,6.029,0.012,-0.006,0.019,108.0,111.0,105.0,13.4,1505.3,323.4,-0.7,1.8,2470.108,13.33,0.013,116.6
2020-02-12T05:28:03,42.805,6.029,0.014,-0.012,-0.004,107.0,109.0,104.0,13.4,1505.3,327.5,-0.7,1.8,2470.177,13.33,0.018,130.6
2020-02-12T05:31:03,42.805,6.029,-0.007,-0.001,-0.002,110.0,109.0,104.0,13.4,1505.3,326.7,-0.7,1.8,2470.147,13.33,0.007,261.9
2020-02-12T05:34:03,42.805,6.029,0.002,-0.019,0.001,108.0,109.0,103.0,13.3,1505.3,324.0,-0.7,1.8,2470.149,13.33,0.019,174.0
2020-02-12T05:37:03,42.805,6.029,-0.007,-0.009,-0.013,108.0,110.0,105.0,13.4,1505.3,324.9,-0.7,1.8,2470.151,13.33,0.011,217.9
2020-02-12T05:40:03,42.805,6.029,0.008,-0.006,-0.018,109.0,110.0,104.0,13.3,1505.3,323.8,-0.7,1.8,2470.135,13.33,0.01,126.9
2020-02-12T05:43:03,42.805,6.029,-0.003,-0.006,-0.017,110.0,108.0,103.0,13.4,1505.3,326.6,-0.7,1.8,2470.147,13.33,0.006,206.6
2020-02-12T05:46:03,42.805,6.029,0.017,-0.002,0.001,109.0,108.0,104.0,13.4,1505.3,327.5,-0.7,1.8,2470.164,13.33,0.017,96.7
2020-02-12T05:49:03,42.805,6.029,0.02,-0.014,0.001,108.0,107.0,105.0,13.4,1505.3,327.3,-0.7,1.9,2470.131,13.33,0.024,125.0
2020-02-12T05:52:03,42.805,6.029,-0.002,-0.019,-0.022,109.0,110.0,104.0,13.4,1505.3,326.2,-0.7,1.8,2470.168,13.33,0.019,186.0
2020-02-12T05:55:03,42.805,6.029,0.018,-0.008,-0.001,107.0,108.0,104.0,13.3,1505.3,324.9,-0.7,1.8,2470.174,13.33,0.019,114.0
2020-02-12T05:58:03,42.805,6.029,0.042,-0.004,0.012,108.0,110.0,105.0,13.4,1505.3,323.8,-0.7,1.8,2470.152,13.33,0.042,95.4
2020-02-12T06:04:03,42.805,6.029,0.025,-0.025,0.008,109.0,111.0,104.0,13.4,1505.3,326.7,-0.7,1.8,2470.234,13.31,0.035,135.0
2020-02-12T06:07:03,42.805,6.029,0.021,-0.011,0.014,109.0,110.0,104.0,13.3,1505.3,326.4,-0.7,1.8,2470.198,13.32,0.023,117.6
2020-02-12T06:10:03,42.805,6.029,-0.014,-0.009,0.0,108.0,110.0,104.0,13.4,1505.3,324.5,-0.7,1.8,2470.247,13.32,0.016,237.3
2020-02-12T06:13:03,42.805,6.029,0.028,-0.028,0.003,108.0,109.0,106.0,13.3,1505.3,324.4,-0.7,1.8,2470.226,13.32,0.039,135.0
2020-02-12T06:16:03,42.805,6.029,0.02,-0.007,-0.014,109.0,109.0,104.0,13.3,1505.3,324.7,-0.7,1.8,2470.243,13.33,0.021,109.3
2020-02-12T06:19:03,42.805,6.029,0.038,-0.005,0.008,107.0,109.0,103.0,13.4,1505.3,324.0,-0.7,1.9,2470.277,13.33,0.038,97.5
2020-02-12T06:22:03,42.805,6.029,0.032,-0.02,0.009,107.0,107.0,104.0,13.3,1505.3,324.1,-0.7,1.8,2470.23,13.33,0.037,122.0
2020-02-12T06:25:03,42.805,6.029,0.023,0.004,0.005,106.0,109.0,104.0,13.3,1505.3,324.1,-0.7,1.8,2470.199,13.33,0.023,80.1
2020-02-12T06:28:03,42.805,6.029,0.027,0.004,-0.013,108.0,108.0,103.0,13.4,1505.3,324.9,-0.7,1.8,2470.234,13.33,0.027,81.6
2020-02-12T06:31:03,42.805,6.029,0.029,-0.009,0.004,107.0,109.0,103.0,13.4,1505.3,323.9,-0.7,1.9,2470.212,13.33,0.03,107.2
2020-02-12T06:34:03,42.805,6.029,0.012,-0.012,0.005,107.0,109.0,104.0,13.4,1505.3,323.6,-0.7,1.8,2470.221,13.33,0.016,135.0
2020-02-12T06:37:03,42.805,6.029,0.022,-0.006,-0.004,107.0,109.0,103.0,13.4,1505.3,324.2,-0.7,1.8,2470.274,13.33,0.022,105.3
2020-02-12T06:40:03,42.805,6.029,0.012,-0.007,-0.005,107.0,108.0,104.0,13.4,1505.3,323.4,-0.7,1.8,2470.215,13.33,0.013,120.3
2020-02-12T06:43:03,42.805,6.029,0.02,-0.012,-0.013,107.0,111.0,105.0,13.3,1505.3,327.1,-0.7,1.8,2470.263,13.33,0.023,121.0
2020-02-12T06:46:03,42.805,6.029,0.021,-0.003,-0.013,107.0,109.0,104.0,13.4,1505.3,327.8,-0.7,1.8,2470.265,13.33,0.021,98.1
2020-02-12T06:49:03,42.805,6.029,0.018,-0.008,0.003,107.0,109.0,103.0,13.4,1505.3,323.3,-0.7,1.9,2470.256,13.33,0.019,114.0
2020-02-12T06:52:03,42.805,6.029,0.01,-0.016,0.007,108.0,107.0,104.0,13.4,1505.3,325.5,-0.7,1.9,2470.272,13.33,0.018,148.0
2020-02-12T06:55:03,42.805,6.029,-0.006,-0.014,0.025,108.0,108.0,102.0,13.4,1505.3,327.0,-0.7,1.8,2470.233,13.33,0.015,203.2
2020-02-12T06:58:03,42.805,6.029,0.054,0.001,0.026,106.0,109.0,103.0,13.4,1505.3,327.1,-0.7,1.8,2470.278,13.33,0.054,88.9
2020-02-12T07:04:03,42.805,6.029,0.022,-0.023,-0.027,107.0,108.0,103.0,13.3,1505.3,324.0,-0.7,1.9,2470.316,13.31,0.031,136.3
2020-02-12T07:07:03,42.805,6.029,0.015,-0.02,-0.021,108.0,109.0,104.0,13.4,1505.3,324.6,-0.7,1.8,2470.281,13.31,0.025,143.1
2020-02-12T07:10:03,42.805,6.029,0.01,-0.017,-0.029,108.0,108.0,104.0,13.4,1505.3,327.9,-0.7,1.8,2470.297,13.32,0.019,149.5
2020-02-12T07:13:03,42.805,6.029,0.012,-0.001,0.0,107.0,109.0,103.0,13.4,1505.3,324.0,-0.7,1.9,2470.326,13.32,0.012,94.8
2020-02-12T07:16:03,42.805,6.029,0.047,-0.008,0.016,109.0,108.0,103.0,13.4,1505.3,325.1,-0.7,1.8,2470.3,13.32,0.047,99.7
2020-02-12T07:19:03,42.805,6.029,-0.011,-0.01,-0.008,107.0,106.0,103.0,13.4,1505.3,325.6,-0.7,1.9,2470.339,13.33,0.014,227.7
2020-02-12T07:22:03,42.805,6.029,0.029,-0.005,0.024,107.0,109.0,104.0,13.4,1505.3,325.3,-0.7,1.8,2470.334,13.33,0.029,99.8
2020-02-12T07:25:03,42.805,6.029,0.023,-0.028,0.01,108.0,108.0,104.0,13.3,1505.3,325.9,-0.7,1.8,2470.31,13.33,0.036,140.6
2020-02-12T07:28:03,42.805,6.029,-0.003,-0.005,0.014,108.0,107.0,104.0,13.4,1505.3,323.1,-0.7,1.8,2470.338,13.33,0.005,211.0
2020-02-12T07:31:03,42.805,6.029,0.038,-0.011,-0.021,109.0,108.0,104.0,13.4,1505.3,324.5,-0.7,1.8,2470.309,13.33,0.039,106.1
2020-02-12T07:34:03,42.805,6.029,0.017,-0.014,0.022,107.0,109.0,104.0,13.4,1505.3,328.5,-0.7,1.8,2470.313,13.33,0.022,129.5
2020-02-12T07:37:03,42.805,6.029,0.025,-0.019,0.005,107.0,110.0,103.0,13.3,1505.3,324.3,-0.7,1.8,2470.315,13.33,0.031,127.2
2020-02-12T07:40:03,42.805,6.029,0.019,-0.033,0.026,107.0,107.0,103.0,13.4,1505.3,323.6,-0.7,1.8,2470.353,13.33,0.038,150.1
2020-02-12T07:43:03,42.805,6.029,0.027,-0.001,-0.013,108.0,108.0,103.0,13.4,1505.3,326.2,-0.7,1.8,2470.304,13.33,0.027,92.1
2020-02-12T07:46:03,42.805,6.029,0.038,-0.012,0.039,109.0,110.0,103.0,13.4,1505.3,323.9,-0.7,1.8,2470.348,13.33,0.039,107.5
2020-02-12T07:49:03,42.805,6.029,0.019,-0.024,0.0,108.0,107.0,105.0,13.4,1505.3,325.5,-0.6,1.8,2470.317,13.33,0.03,141.6
2020-02-12T07:52:03,42.805,6.029,0.001,-0.011,-0.018,109.0,105.0,103.0,13.4,1505.3,325.5,-0.7,1.8,2470.368,13.33,0.011,174.8
2020-02-12T07:55:03,42.805,6.029,0.03,-0.005,0.02,108.0,108.0,105.0,13.3,1505.3,328.3,-0.7,1.8,2470.352,13.33,0.03,99.5
2020-02-12T08:04:03,42.805,6.029,0.003,-0.014,-0.011,107.0,107.0,103.0,13.4,1505.2,326.7,-0.8,1.9,2470.42,13.29,0.014,167.9
2020-02-12T08:07:03,42.805,6.029,0.001,-0.022,-0.032,107.0,107.0,104.0,13.4,1505.3,324.5,-0.7,1.8,2470.372,13.31,0.022,177.4
2020-02-12T08:10:03,42.805,6.029,0.011,-0.027,-0.039,107.0,107.0,103.0,13.4,1505.3,325.0,-0.7,1.8,2470.401,13.31,0.029,157.8
2020-02-12T08:13:03,42.805,6.029,0.01,-0.024,0.0,109.0,108.0,104.0,13.4,1505.3,323.3,-0.7,1.8,2470.372,13.32,0.026,157.4
2020-02-12T08:16:03,42.805,6.029,0.028,-0.031,-0.003,108.0,109.0,103.0,13.4,1505.3,328.4,-0.7,1.8,2470.425,13.32,0.041,137.9
2020-02-12T08:19:03,42.805,6.029,0.036,-0.034,0.03,108.0,109.0,103.0,13.3,1505.3,324.9,-0.7,1.8,2470.372,13.32,0.049,133.4
2020-02-12T08:22:03,42.805,6.029,0.03,0.006,-0.003,108.0,109.0,104.0,13.4,1505.3,325.2,-0.7,1.9,2470.372,13.32,0.03,78.7
2020-02-12T08:25:03,42.805,6.029,0.023,-0.012,0.002,107.0,108.0,104.0,13.4,1505.3,323.7,-0.7,1.9,2470.399,13.33,0.025,117.6
2020-02-12T08:28:03,42.805,6.029,0.017,-0.006,0.004,108.0,109.0,104.0,13.4,1505.3,325.6,-0.7,1.8,2470.399,13.33,0.018,109.4
2020-02-12T08:31:03,42.805,6.029,0.0,-0.018,-0.033,109.0,107.0,105.0,13.4,1505.3,327.2,-0.7,1.8,2470.411,13.33,0.018,180.0
2020-02-12T08:34:03,42.805,6.029,0.006,-0.016,-0.02,106.0,108.0,103.0,13.3,1505.3,323.9,-0.7,1.9,2470.369,13.33,0.017,159.4
2020-02-12T08:37:03,42.805,6.029,0.005,-0.013,-0.032,107.0,107.0,103.0,13.4,1505.3,326.4,-0.7,1.9,2470.387,13.33,0.013,159.0
2020-02-12T08:40:03,42.805,6.029,-0.003,-0.011,-0.037,108.0,107.0,103.0,13.4,1505.3,326.4,-0.7,1.8,2470.372,13.33,0.011,195.3
2020-02-12T08:43:03,42.805,6.029,-0.007,-0.015,-0.011,108.0,106.0,104.0,13.4,1505.3,325.5,-0.7,1.8,2470.418,13.33,0.016,205.0
2020-02-12T08:46:03,42.805,6.029,0.009,-0.005,-0.005,108.0,106.0,105.0,13.3,1505.3,326.0,-0.7,1.8,2470.368,13.33,0.01,119.1
2020-02-12T08:49:03,42.805,6.029,-0.011,-0.012,-0.018,108.0,107.0,104.0,13.3,1505.3,326.8,-0.7,1.8,2470.356,13.33,0.016,222.5
2020-02-12T08:52:03,42.805,6.029,0.023,-0.019,-0.015,107.0,108.0,104.0,13.4,1505.3,323.4,-0.7,1.8,2470.436,13.33,0.029,129.6
2020-02-12T08:55:03,42.805,6.029,0.004,-0.036,-0.015,109.0,107.0,104.0,13.4,1505.3,326.0,-0.7,1.8,2470.414,13.33,0.036,173.7
2020-02-12T08:58:03,42.805,6.029,0.0,-0.029,-0.027,106.0,106.0,103.0,13.3,1505.3,323.7,-0.7,1.8,2470.393,13.33,0.028,180.0
2020-02-12T09:04:03,42.805,6.029,0.021,-0.026,-0.021,107.0,108.0,104.0,13.3,1505.3,325.8,-0.8,1.8,2470.399,13.31,0.033,141.1
2020-02-12T09:07:03,42.805,6.029,0.008,-0.02,-0.021,106.0,106.0,104.0,13.4,1505.3,326.1,-0.7,1.9,2470.432,13.31,0.021,158.2
2020-02-12T09:10:03,42.805,6.029,-0.001,0.0,-0.004,107.0,109.0,104.0,13.3,1505.3,324.6,-0.7,1.8,2470.434,13.32,0.001,270.0
2020-02-12T09:13:03,42.805,6.029,0.012,-0.007,-0.022,108.0,107.0,103.0,13.3,1505.3,326.1,-0.7,1.8,2470.413,13.32,0.013,120.3
2020-02-12T09:16:03,42.805,6.029,0.003,-0.007,-0.036,109.0,108.0,103.0,13.4,1505.3,327.0,-0.7,1.8,2470.442,13.32,0.007,156.8
2020-02-12T09:19:03,42.805,6.029,0.009,-0.009,-0.005,107.0,108.0,104.0,13.4,1505.3,325.7,-0.7,1.8,2470.445,13.32,0.012,135.0
2020-02-12T09:22:03,42.805,6.029,0.017,-0.025,-0.021,106.0,107.0,104.0,13.4,1505.3,324.4,-0.7,1.9,2470.433,13.33,0.03,145.8
2020-02-12T09:25:03,42.805,6.029,-0.006,-0.01,-0.022,109.0,107.0,103.0,13.3,1505.3,325.1,-0.7,1.8,2470.393,13.33,0.011,211.0
2020-02-12T09:28:03,42.805,6.029,-0.018,-0.009,-0.027,107.0,108.0,102.0,13.4,1505.3,325.7,-0.7,1.8,2470.385,13.33,0.02,243.4
2020-02-12T09:31:03,42.805,6.029,-0.009,-0.007,-0.005,108.0,106.0,103.0,13.4,1505.3,327.4,-0.7,1.8,2470.404,13.33,0.011,232.1
2020-02-12T09:34:03,42.805,6.029,0.002,0.003,-0.027,108.0,107.0,104.0,13.4,1505.3,326.2,-0.7,1.8,2470.415,13.33,0.003,33.7
2020-02-12T09:37:03,42.805,6.029,0.009,-0.005,-0.012,107.0,109.0,103.0,13.4,1505.3,325.3,-0.7,1.8,2470.423,13.33,0.01,119.1
2020-02-12T09:40:03,42.805,6.029,0.015,-0.015,-0.027,108.0,108.0,103.0,13.3,1505.3,324.4,-0.7,1.8,2470.382,13.33,0.021,135.0
2020-02-12T09:43:03,42.805,6.029,-0.006,-0.021,0.002,108.0,107.0,103.0,13.4,1505.3,323.4,-0.7,1.8,2470.397,13.33,0.021,195.9
2020-02-12T09:46:03,42.805,6.029,-0.016,-0.018,-0.055,107.0,108.0,104.0,13.3,1505.3,326.8,-0.7,1.8,2470.402,13.33,0.024,221.6
2020-02-12T09:49:03,42.805,6.029,0.012,-0.021,-0.024,105.0,108.0,103.0,13.4,1505.3,326.3,-0.7,1.8,2470.433,13.33,0.024,150.3
2020-02-12T09:52:03,42.805,6.029,0.017,-0.034,-0.037,107.0,109.0,103.0,13.4,1505.3,324.4,-0.7,1.8,2470.431,13.33,0.038,153.4
2020-02-12T09:55:03,42.805,6.029,-0.001,-0.016,-0.034,107.0,108.0,104.0,13.4,1505.3,326.6,-0.7,1.8,2470.416,13.33,0.016,183.6
2020-02-12T09:58:03,42.805,6.029,-0.004,-0.011,-0.022,108.0,109.0,104.0,13.3,1505.3,325.8,-0.7,1.8,2470.408,13.33,0.011,200.0